sat.trackr.live / text

‹ back to catalog

STARLINK-5276

NORAD 55399 · 2023-014J

PAYLOAD ACTIVE UNKNOWN

§ Identity

Operator
Country
US
Launch date
2023-01-31
Launch site
AFWTR
Launch vehicle
Mass (kg)
RCS (m²)

Purposes: comms

External: N2YO · Heavens-Above · Gunter

§ Orbital elements

Epoch: 2026-05-24T23:16:43.648032Z

Period
96.11 min
Inclination
69.9992°
Eccentricity
0.0003465
Mean motion
14.98329459 rev/d
Perigee alt
569.6 km
Apogee alt
574.5 km
Semi-major
6,950.2 km
B*
6.5264e-6
RAAN
232.0349°
Arg perigee
270.9496°
Mean anomaly
89.1266°
Rev number
18,348

§ Raw data

STARLINK-52761 55399U 23014J   26144.96994963 -.00000015  00000+0  65264-5 0  99972 55399  69.9992 232.0349 0003465 270.9496  89.1266 14.98329459183485

JSON: /api/v1/satellites/55399 · /tle

For live sub-satellite position, see the globe view (requires WebGL).

§ Visibility from observer

Set your observer location to see the next 7 days of passes ≥ 10°. The values pass through the URL so the page stays shareable.

No JS? Fill the form by hand. The geolocation button needs JavaScript.